STARLINK-37059, 68088

Orbit data source: Space-Track

STARLINK-37059, 68088 is a payload satellite owned by SpaceX/Seattle (US) in LEO that was launched on Wed, 04 Mar 2026 UTC via an FALCON 9 launch vehicle from the Air Force Eastern Test Range (AFETR). Payload-class satellites include a variety of spacecraft equipped with specific instruments for various scientific and technological missions. These include communications satellites like Starlink; space stations such as the ISS; scientific satellites like the Hubble; Earth observation satellites from companies like Planet Labs, Umbra, and HawkEye 360; GPS; miniature CubeSats for education and research; and military/defense satellites.

Loading next visibility...
Identifier
68088, 2026-042V
Orbit
LEO
Country
Flag of USUS
Related business
Manufacturer
SpaceX/Seattle
Mission
Operational Commercial Communications
Bus & Motor
STARLINK V2MO, Unknown motor
Mass
575 kg wet, ~530 kg dry
Launch date (UTC)
2026-03-04 (4 months ago)
Launch vehicle
FALCON 9
Launch site
Air Force Eastern Test Range (AFETR)
Object type
Payload
Rocket body
Debris
Shape & HBR
Box + 2 Pan, 17.7 m
Radar Cross Section
36.964 m², Large (>1 m²)

Expand to show TLE details & history
Last TLE update: 21 hours ago

TLE from 21 hours ago
0 STARLINK-37059
1 68088U 26042V   26171.10749607  .00024042  00000-0  71988-3 0  9993
2 68088  53.1583  61.7484 0000941  72.6333 287.4772 15.34423450 18002
Epoch: 2026-06-20T02:34Z
TLE epoch observation values (Epoch: 2026-06-20T02:34:47.660Z)
Latitude
-0.00006°
Longitude
114.72291°
Altitude
463.341 km
Speed
7.636 km/s
True Right ascension
04h 06m 59s
True Declination
0° 00' 00"
Sunlit
Object was in daylight at epoch
Visualization orbit readout
Latitude
Unknown
Longitude
Unknown
Altitude
Unknown
Speed
Unknown
Apparent Right ascension
Unknown
Apparent Declination
Unknown
Sunlit
N/A
Visualization observer readout
Local Sidereal Time
10:19:06
Azimuth
Unknown
Elevation
Unknown
Doppler factor
Unknown
Orbital elements
Apogee altitude
463.534 km
Perigee altitude
462.247 km
Semi-major axis
6,841.028 km
Eccentricity
0.00009
Inclination
53.1583°
RAAN
61.7484°
Arg. of periapsis
72.6333°
True anomaly
287.46691°
Mean anomaly
287.4772°
Eccentric anomaly
287.47206°
Mean motion
3.83585 °/min
Orbital period
93.85 mins
BSTAR
0.00071988
Loading maneuver chart data...
Computing Atmospheric mass density...
Loading historical data...
Loading historical data...
Loading historical data...
Loading historical data...
Loading historical data...
Loading historical data...
Loading historical data...

Documentation

Showing up to 5 results
|